Estació municipal de Vilalleons (Osona, E.N.Guilleries-Savassona)

Consulta les dades en temps real de l'estació municipal de Vilalleons





Hora UTC 10:05
Temperatura 27.6 ºC
Humitat 61.0 %
Pressió 1020.8 hPa
Pluja 0.0 mm
Velocitat vent 1.6 km/h
Direcció vent SW

Webcam

Dades diàries 2026-09-01



Hora UTC (hivern +1h; estiu +2h)
Temperatura (ºC) Humitat (%) Pressió (hPa) Velocitat vent (km/h) Precipitació (mm)
Hora UTC Aire Humitat Pressió Vel. Dir. Vel. Max Dir. Intent. màx 5 min.
00:05 18.3 88.0 1020.4 0.0 ESE 0.0 0.0
00:10 18.2 89.0 1020.4 0.0 ESE 0.0 0.0
00:15 18.2 89.0 1020.4 0.0 ESE 0.0 0.0
00:20 18.1 89.0 1020.5 0.0 ESE 0.0 0.0
00:25 18.2 90.0 1020.4 0.0 ESE 0.0 0.0
00:30 18.2 90.0 1020.3 0.0 ESE 0.0 0.0
00:35 18.3 90.0 1020.1 0.0 ESE 0.0 0.0
00:40 18.4 90.0 1020.2 0.0 ESE 0.0 0.0
00:45 18.4 90.0 1020.3 0.0 ESE 0.0 0.0
00:50 18.5 90.0 1020.3 0.0 ESE 0.0 0.0
00:55 18.6 90.0 1020.3 0.0 ESE 0.0 0.0
01:00 18.7 90.0 1020.3 0.0 ESE 0.0 0.0
01:05 18.7 90.0 1020.1 0.0 ESE 0.0 0.0
01:10 18.8 90.0 1020.2 0.0 ESE 0.0 0.0
01:15 18.8 90.0 1020.2 0.0 ESE 0.0 0.0
01:20 18.9 90.0 1020.3 0.0 ESE 0.0 0.0
01:25 19.0 90.0 1020.2 0.0 ESE 0.0 0.0
01:30 19.0 90.0 1020.2 0.0 ESE 0.0 0.0
01:35 19.2 90.0 1020.0 0.0 ESE 0.0 0.0
01:40 19.3 89.0 1020.0 0.0 ESE 0.0 0.0
01:45 19.3 89.0 1020.0 0.0 ESE 0.0 0.0
01:50 19.3 89.0 1020.0 0.0 ESE 0.0 0.0
01:55 19.3 89.0 1020.0 4.8 ESE 4.8 0.0
02:00 19.4 89.0 1020.0 0.0 ESE 4.8 0.0
02:05 19.5 89.0 1020.0 0.0 ESE 3.2 0.0
02:10 19.7 88.0 1020.1 0.0 ESE 1.6 0.0
02:15 19.7 88.0 1019.9 1.6 S 3.2 0.0
02:20 19.8 88.0 1019.9 1.6 SSE 4.8 0.0
02:25 20.0 88.0 1019.9 1.6 SW 6.4 0.0
02:30 20.1 88.0 1019.8 3.2 SW 6.4 0.0
02:35 20.2 88.0 1019.8 3.2 SW 6.4 0.0
02:40 20.2 87.0 1019.7 1.6 SW 6.4 0.0
02:45 20.3 87.0 1019.7 0.0 SW 4.8 0.0
02:50 20.3 87.0 1019.6 0.0 SW 3.2 0.0
02:55 20.3 87.0 1019.5 1.6 SW 3.2 0.0
03:00 20.3 87.0 1019.5 1.6 SW 4.8 0.0
03:05 20.3 87.0 1019.5 0.0 SW 4.8 0.0
03:10 20.3 87.0 1019.5 0.0 SW 3.2 0.0
03:15 20.4 87.0 1019.4 1.6 SW 3.2 0.0
03:20 20.4 87.0 1019.2 0.0 SW 3.2 0.0
03:25 20.4 87.0 1019.2 0.0 SW 1.6 0.0
03:30 20.4 87.0 1019.3 0.0 SW 0.0 0.0
03:35 20.4 87.0 1019.1 0.0 SW 0.0 0.0
03:40 20.4 87.0 1019.1 0.0 SW 0.0 0.0
03:45 20.3 87.0 1019.1 0.0 SW 0.0 0.0
03:50 20.2 87.0 1018.9 0.0 SW 0.0 0.0
03:55 20.2 87.0 1019.1 0.0 SW 0.0 0.0
04:00 20.2 87.0 1018.9 0.0 SW 3.2 0.0
04:05 20.2 87.0 1019.0 0.0 SW 1.6 0.0
04:10 20.1 87.0 1019.0 0.0 SW 0.0 0.0
04:15 20.1 87.0 1018.9 0.0 SW 0.0 0.0
04:20 19.8 86.0 1019.0 0.0 SW 0.0 0.0
04:25 19.6 87.0 1019.0 1.6 SW 3.2 0.0
04:30 19.3 87.0 1018.9 0.0 SW 3.2 0.0
04:35 19.2 88.0 1018.9 1.6 SW 3.2 0.0
04:40 18.9 88.0 1018.9 0.0 SW 3.2 0.0
04:45 18.8 88.0 1018.9 0.0 SW 3.2 0.0
04:50 18.7 89.0 1019.0 0.0 SW 1.6 0.0
04:55 18.7 89.0 1018.9 0.0 SW 0.0 0.0
05:00 18.6 89.0 1019.0 0.0 SW 0.0 0.0
05:05 18.6 90.0 1019.0 0.0 SW 0.0 0.0
05:10 18.5 90.0 1019.0 0.0 SW 0.0 0.0
05:15 18.4 89.0 1019.0 0.0 SW 0.0 0.0
05:20 18.4 90.0 1019.0 0.0 SW 1.6 0.0
05:25 18.3 90.0 1019.1 0.0 SW 0.0 0.0
05:30 18.3 90.0 1019.0 0.0 SW 0.0 0.0
05:35 18.1 90.0 1019.2 1.6 SW 3.2 0.0
05:40 18.1 90.0 1019.2 0.0 SW 3.2 0.0
05:45 18.0 91.0 1019.1 0.0 SW 3.2 0.0
05:50 17.9 90.0 1019.2 3.2 SW 3.2 0.0
05:55 17.9 91.0 1019.2 1.6 SW 3.2 0.0
06:00 17.8 91.0 1019.2 0.0 SW 3.2 0.0
06:05 17.8 91.0 1019.1 0.0 SW 3.2 0.0
06:10 17.9 91.0 1019.3 0.0 SW 0.0 0.0
06:15 17.9 92.0 1019.1 0.0 SW 0.0 0.0
06:20 17.9 91.0 1019.2 0.0 SW 0.0 0.0
06:25 18.0 92.0 1019.2 0.0 SW 0.0 0.0
06:30 18.1 92.0 1019.1 0.0 SW 0.0 0.0
06:35 18.2 92.0 1019.2 0.0 SW 0.0 0.0
06:40 18.3 92.0 1019.2 0.0 SW 0.0 0.0
06:45 18.6 92.0 1019.2 0.0 SW 0.0 0.0
06:50 18.8 92.0 1019.2 0.0 SW 0.0 0.0
06:55 19.0 92.0 1019.3 0.0 SW 0.0 0.0
07:00 19.2 92.0 1019.4 0.0 SW 0.0 0.0
07:05 19.6 91.0 1019.2 0.0 SW 0.0 0.0
07:10 19.9 90.0 1019.3 3.2 SW 3.2 0.0
07:15 20.2 88.0 1019.5 1.6 WSW 4.8 0.0
07:20 20.4 87.0 1019.6 3.2 NNW 4.8 0.0
07:25 20.6 86.0 1019.6 1.6 NNW 4.8 0.0
07:30 20.7 86.0 1019.7 3.2 NNW 3.2 0.0
07:35 20.9 85.0 1019.9 4.8 N 4.8 0.0
07:40 21.1 84.0 1019.8 1.6 N 4.8 0.0
07:45 21.2 83.0 1019.8 0.0 NNW 4.8 0.0
07:50 21.4 83.0 1019.8 1.6 N 4.8 0.0
07:55 21.6 82.0 1019.7 4.8 N 6.4 0.0
08:00 21.7 81.0 1019.8 3.2 N 6.4 0.0
08:05 21.7 81.0 1019.9 0.0 N 4.8 0.0
08:10 21.7 80.0 1019.8 0.0 N 4.8 0.0
08:15 21.8 81.0 1020.0 0.0 SW 4.8 0.0
08:20 22.2 79.0 1020.0 0.0 WSW 4.8 0.0
08:25 22.4 77.0 1020.0 3.2 SW 4.8 0.0
08:30 22.4 77.0 1019.9 3.2 SW 4.8 0.0
08:35 22.8 77.0 1020.1 8.0 N 8.0 0.0
08:40 23.1 74.0 1020.1 0.0 NW 8.0 0.0
08:45 23.3 74.0 1020.3 1.6 SW 6.4 0.0
08:50 23.8 74.0 1020.5 1.6 NNW 6.4 0.0
08:55 23.9 71.0 1020.4 0.0 N 9.7 0.0
09:00 24.1 71.0 1020.5 1.6 SW 8.0 0.0
09:05 24.4 70.0 1020.4 0.0 SW 6.4 0.0
09:10 24.7 70.0 1020.6 4.8 N 8.0 0.0
09:15 24.6 69.0 1020.6 3.2 SSW 8.0 0.0
09:20 24.8 70.0 1020.7 1.6 WSW 6.4 0.0
09:25 25.3 68.0 1020.7 1.6 WSW 6.4 0.0
09:30 25.7 68.0 1020.8 1.6 W 4.8 0.0
09:35 25.8 65.0 1020.7 3.2 W 6.4 0.0
09:40 26.1 66.0 1020.8 3.2 SSW 6.4 0.0
09:45 26.6 65.0 1020.9 1.6 SE 6.4 0.0
09:50 26.9 64.0 1020.9 1.6 SW 8.0 0.0
09:55 27.1 63.0 1020.9 1.6 W 8.0 0.0
10:00 27.4 63.0 1020.7 1.6 W 8.0 0.0
10:05 27.6 61.0 1020.8 1.6 SW 8.0 0.0
Màxima 27.6 92.0 1020.9 8.0 N 9.7 0.0
Mínima 17.8 61.0 1018.9
Total 0.0